DW2659 Weather Reports


time (UTC)temp
C
wind
direction
speed
KPH
gust
KPH
rain 1hr
cm
rain 24hr
cm
rain mn
cm
humidity
%
barometer
mb
20260510200903 28 95 1.6 3.2 0.00 0.00 0.00 37 1015.7
20260510200403 28 153 3.2 4.8 0.00 0.00 0.00 34 1015.7
20260510195905 28 65 0.0 1.6 0.00 0.00 0.00 39 1015.7
20260510195404 27 65 1.6 4.8 0.00 0.00 0.00 40 1015.7
20260510194903 27 125 1.6 4.8 0.00 0.00 0.00 36 1015.9
20260510194405 28 20 1.6 4.8 0.00 0.00 0.00 40 1016.0
20260510193404 27 40 1.6 4.8 0.00 0.00 0.00 40 1016.0
20260510192904 27 96 1.6 3.2 0.00 0.00 0.00 37 1016.1
20260510192404 27 177 0.0 3.2 0.00 0.00 0.00 40 1016.2
20260510191405 27 5 1.6 4.8 0.00 0.00 0.00 41 1016.1
20260510190404 27 229 3.2 4.8 0.00 0.00 0.00 37 1016.1
20260510185907 27 261 3.2 8.0 0.00 0.00 0.00 39 1016.5
20260510185404 27 225 3.2 4.8 0.00 0.00 0.00 35 1016.5
20260510184904 27 102 1.6 3.2 0.00 0.00 0.00 41 1016.5
20260510184405 27 15 0.0 3.2 0.00 0.00 0.00 38 1016.5
20260510183903 26 88 3.2 8.0 0.00 0.00 0.00 41 1016.5
20260510183403 26 96 1.6 4.8 0.00 0.00 0.00 41 1016.5
20260510182905 26 146 3.2 8.0 0.00 0.00 0.00 42 1016.5
20260510182404 26 117 3.2 8.0 0.00 0.00 0.00 43 1016.5
20260510181905 26 75 1.6 4.8 0.00 0.00 0.00 44 1016.5
20260510180405 26 78 3.2 4.8 0.00 0.00 0.00 46 1016.5
20260510175904 26 80 1.6 4.8 0.00 0.00 0.00 49 1016.5
20260510175404 26 106 1.6 4.8 0.00 0.00 0.00 45 1016.7
20260510174905 26 338 0.0 1.6 0.00 0.00 0.00 45 1016.7
20260510174405 26 338 1.6 4.8 0.00 0.00 0.00 47 1016.7
20260510173904 25 300 1.6 4.8 0.00 0.00 0.00 48 1016.7
20260510172904 25 244 4.8 9.7 0.00 0.00 0.00 45 1016.7
20260510172404 25 189 1.6 4.8 0.00 0.00 0.00 46 1017.0
20260510171905 25 247 3.2 8.0 0.00 0.00 0.00 47 1017.0
20260510171404 25 187 3.2 4.8 0.00 0.00 0.00 47 1017.0
20260510170903 25 240 1.6 4.8 0.00 0.00 0.00 48 1017.0
20260510165904 26 186 3.2 4.8 0.00 0.00 0.00 44 1016.9
20260510165404 26 113 1.6 3.2 0.00 0.00 0.00 47 1016.9
20260510164905 26 38 1.6 3.2 0.00 0.00 0.00 53 1016.9
20260510164404 25 115 4.8 9.7 0.00 0.00 0.00 51 1016.9
20260510163904 25 189 3.2 9.7 0.00 0.00 0.00 50 1016.9
20260510163405 25 136 4.8 9.7 0.00 0.00 0.00 48 1016.9
20260510162904 25 118 3.2 11.3 0.00 0.00 0.00 52 1017.1
20260510162404 25 77 3.2 4.8 0.00 0.00 0.00 53 1017.1
20260510161905 25 67 3.2 8.0 0.00 0.00 0.00 52 1017.1
20260510161404 25 110 4.8 9.7 0.00 0.00 0.00 55 1017.0
20260510160904 25 93 1.6 4.8 0.00 0.00 0.00 58 1017.0
20260510160405 25 78 1.6 4.8 0.00 0.00 0.00 56 1017.0
20260510155904 25 109 6.4 9.7 0.00 0.00 0.00 56 1017.2
20260510155404 25 53 1.6 3.2 0.00 0.00 0.00 61 1017.2
20260510154405 24 125 3.2 4.8 0.00 0.00 0.00 62 1017.1
20260510153903 23 230 4.8 9.7 0.00 0.00 0.00 62 1017.1
20260510151904 23 142 1.6 4.8 0.00 0.00 0.00 67 1017.1
20260510151404 22 132 4.8 9.7 0.00 0.00 0.00 66 1017.1
20260510150905 22 140 6.4 9.7 0.00 0.00 0.00 67 1017.1
20260510150404 22 173 3.2 8.0 0.00 0.00 0.00 67 1017.1
20260510145904 23 107 3.2 9.7 0.00 0.00 0.00 69 1017.1
20260510145405 22 69 1.6 4.8 0.00 0.00 0.00 68 1017.1
20260510144902 22 155 4.8 4.8 0.00 0.00 0.00 70 1017.1
20260510143903 21 84 1.6 4.8 0.00 0.00 0.00 71 1017.2
20260510143402 21 135 4.8 8.0 0.00 0.00 0.00 72 1017.2
20260510142403 20 211 3.2 8.0 0.00 0.00 0.00 75 1017.3
20260510141903 20 195 3.2 4.8 0.00 0.00 0.00 75 1017.2
20260510141402 20 133 4.8 8.0 0.00 0.00 0.00 76 1017.3
20260510140902 20 101 3.2 8.0 0.00 0.00 0.00 76 1017.3
20260510140403 19 116 1.6 4.8 0.00 0.00 0.00 79 1017.3
20260510135903 19 196 1.6 4.8 0.00 0.00 0.00 79 1017.1
20260510134404 18 228 0.0 3.2 0.00 0.00 0.00 85 1017.0
20260510133903 17 258 1.6 4.8 0.00 0.00 0.00 85 1017.0
20260510132904 17 168 1.6 4.8 0.00 0.00 0.00 88 1016.9
20260510132403 17 118 3.2 4.8 0.00 0.00 0.00 88 1016.9
20260510131903 17 108 3.2 4.8 0.00 0.00 0.00 89 1017.0
20260510131404 16 116 1.6 3.2 0.00 0.00 0.00 89 1016.9
20260510130903 16 122 1.6 4.8 0.00 0.00 0.00 89 1016.9
20260510130405 16 169 0.0 1.6 0.00 0.00 0.00 89 1016.9
20260510125403 15 169 0.0 1.6 0.00 0.00 0.00 89 1016.8
20260510124903 15 169 0.0 1.6 0.00 0.00 0.00 89 1016.8
20260510124403 15 169 0.0 1.6 0.00 0.00 0.00 89 1016.8
20260510123903 15 169 0.0 0.0 0.00 0.00 0.00 89 1016.6
20260510123403 14 169 0.0 0.0 0.00 0.00 0.00 89 1016.6
20260510122902 14 169 0.0 1.6 0.00 0.00 0.00 89 1016.7
20260510122402 13 169 1.6 1.6 0.00 0.00 0.00 89 1016.7
20260510121904 13 169 0.0 1.6 0.00 0.00 0.00 89 1016.7
20260510121402 13 169 0.0 1.6 0.00 0.00 0.00 89 1016.7
20260510120403 13 169 0.0 0.0 0.00 0.00 0.00 88 1016.5
20260510115904 12 169 0.0 0.0 0.00 0.00 0.00 88 1016.0
20260510115403 12 169 0.0 0.0 0.00 0.00 0.00 88 1016.0
20260510114903 12 169 0.0 0.0 0.00 0.00 0.00 88 1016.0
20260510114404 12 169 0.0 1.6 0.00 0.00 0.00 88 1016.0
20260510113403 12 169 0.0 0.0 0.00 0.00 0.00 88 1016.0
20260510112903 12 169 0.0 0.0 0.00 0.00 0.00 88 1016.0
20260510112403 12 169 0.0 0.0 0.00 0.00 0.00 88 1015.5
20260510110902 12 169 0.0 0.0 0.00 0.00 0.00 88 1015.5
20260510110403 12 169 0.0 0.0 0.00 0.00 0.00 88 1015.4
20260510105906 12 169 0.0 0.0 0.00 0.00 0.00 88 1015.2
20260510105403 12 169 0.0 0.0 0.00 0.00 0.00 88 1015.2
20260510104903 12 169 0.0 0.0 0.00 0.00 0.00 87 1015.2
20260510104403 12 169 0.0 0.0 0.00 0.00 0.00 87 1015.1
20260510103903 12 169 0.0 0.0 0.00 0.00 0.00 87 1015.1
20260510103403 12 169 0.0 0.0 0.00 0.00 0.00 87 1015.1
20260510102904 12 169 0.0 0.0 0.00 0.00 0.00 87 1015.1
20260510102403 12 169 0.0 0.0 0.00 0.00 0.00 87 1015.1
20260510101902 12 169 0.0 0.0 0.00 0.00 0.00 87 1015.1
20260510101404 12 169 0.0 0.0 0.00 0.00 0.00 87 1014.9
20260510100902 12 169 0.0 0.0 0.00 0.00 0.00 87 1014.9
20260510100403 12 169 0.0 0.0 0.00 0.00 0.00 87 1014.9
20260510095904 12 169 0.0 0.0 0.00 0.00 0.00 87 1014.5
20260510095403 12 169 0.0 0.0 0.00 0.00 0.00 87 1014.5
20260510094902 12 169 0.0 0.0 0.00 0.00 0.00 87 1014.5
20260510094403 12 169 0.0 0.0 0.00 0.00 0.00 87 1014.5
20260510093403 12 169 0.0 1.6 0.00 0.00 0.00 87 1014.5
20260510092903 12 169 0.0 1.6 0.00 0.00 0.00 87 1014.5
20260510092404 12 169 0.0 0.0 0.00 0.00 0.00 87 1014.5
20260510091903 12 169 0.0 0.0 0.00 0.00 0.00 87 1014.5
20260510091403 12 169 0.0 0.0 0.00 0.00 0.00 87 1014.5
20260510090904 12 169 0.0 0.0 0.00 0.00 0.00 87 1014.5
20260510090403 12 169 0.0 0.0 0.00 0.00 0.00 87 1014.5
20260510085404 12 169 0.0 0.0 0.00 0.00 0.00 87 1014.2
20260510084902 12 169 0.0 0.0 0.00 0.00 0.00 87 1014.2
20260510084403 12 169 0.0 0.0 0.00 0.00 0.00 86 1014.0
20260510083904 12 169 0.0 0.0 0.00 0.00 0.00 86 1014.0
20260510083402 12 169 0.0 0.0 0.00 0.00 0.00 87 1014.0
20260510082903 12 169 0.0 0.0 0.00 0.00 0.00 86 1014.0
20260510082404 12 169 0.0 0.0 0.00 0.00 0.00 86 1013.9
20260510081903 12 169 0.0 0.0 0.00 0.00 0.00 86 1013.9
20260510081403 12 169 0.0 0.0 0.00 0.00 0.00 86 1013.6
20260510080904 12 169 0.0 0.0 0.00 0.00 0.00 86 1013.6
20260510080403 13 169 0.0 0.0 0.00 0.00 0.00 86 1013.6
20260510075903 13 169 0.0 0.0 0.00 0.00 0.00 86 1013.3
20260510075405 13 169 0.0 0.0 0.00 0.00 0.00 87 1013.3
20260510074903 13 169 0.0 0.0 0.00 0.00 0.00 87 1013.3
20260510074403 13 169 0.0 0.0 0.00 0.00 0.00 86 1013.3
20260510073903 13 169 0.0 0.0 0.00 0.00 0.00 86 1013.3
20260510072903 13 169 0.0 1.6 0.00 0.00 0.00 86 1013.3
20260510072403 13 169 0.0 0.0 0.00 0.00 0.00 86 1013.3
20260510071903 13 169 0.0 0.0 0.00 0.00 0.00 86 1013.3
20260510071404 13 169 0.0 1.6 0.00 0.00 0.00 86 1013.3
20260510070903 13 169 0.0 1.6 0.00 0.00 0.00 86 1013.3
20260510070402 13 169 0.0 0.0 0.00 0.00 0.00 86 1013.3
20260510065904 13 169 0.0 0.0 0.00 0.00 0.00 86 1013.5
20260510065402 13 169 0.0 1.6 0.00 0.00 0.00 86 1013.5
20260510064903 13 169 0.0 0.0 0.00 0.00 0.00 86 1013.5
20260510064404 13 169 0.0 0.0 0.00 0.00 0.00 85 1013.5
20260510063903 13 169 0.0 0.0 0.00 0.00 0.00 86 1013.5
20260510063403 13 169 0.0 1.6 0.00 0.00 0.00 85 1013.5
20260510062904 14 169 0.0 0.0 0.00 0.00 0.00 85 1013.4
20260510062403 14 169 0.0 0.0 0.00 0.00 0.00 85 1013.4
20260510061903 14 169 0.0 1.6 0.00 0.00 0.00 85 1013.5
20260510060903 14 169 0.0 3.2 0.00 0.00 0.00 85 1013.5
20260510060404 14 169 0.0 1.6 0.00 0.00 0.00 85 1013.5
20260510055904 14 169 0.0 1.6 0.00 0.00 0.00 85 1013.5
20260510054903 15 169 0.0 0.0 0.00 0.00 0.00 85 1013.5
20260510054404 15 169 0.0 0.0 0.00 0.00 0.00 84 1013.6
20260510053403 15 169 0.0 0.0 0.00 0.00 0.00 84 1013.6
20260510052903 15 169 0.0 0.0 0.00 0.00 0.00 84 1013.5
20260510052404 15 169 0.0 0.0 0.00 0.00 0.00 84 1013.5
20260510051903 15 169 0.0 0.0 0.00 0.00 0.00 84 1013.5
20260510051403 15 169 0.0 1.6 0.00 0.00 0.00 83 1014.1
20260510050903 15 169 0.0 1.6 0.00 0.00 0.00 83 1014.1
20260510050404 16 169 0.0 1.6 0.00 0.00 0.00 83 1014.1
20260510045903 16 213 0.0 0.0 0.00 0.00 0.00 83 1014.1
20260510045403 16 213 0.0 0.0 0.00 0.00 0.00 83 1014.1
20260510044404 16 114 0.0 0.0 0.00 0.00 0.00 82 1013.8
20260510043903 16 114 0.0 1.6 0.00 0.00 0.00 82 1013.8
20260510043404 16 114 0.0 0.0 0.00 0.00 0.00 82 1013.8
20260510042903 16 114 0.0 0.0 0.00 0.00 0.00 81 1013.9
20260510041903 16 114 0.0 1.6 0.00 0.00 0.00 81 1013.8
20260510041403 16 114 0.0 1.6 0.00 0.00 0.00 81 1013.7
20260510040905 17 114 1.6 4.8 0.00 0.00 0.00 80 1013.7
20260510040403 17 242 0.0 3.2 0.00 0.00 0.00 80 1013.7
20260510035903 17 267 0.0 3.2 0.00 0.00 0.00 81 1013.7
20260510035404 17 263 1.6 3.2 0.00 0.00 0.00 82 1013.7
20260510034904 17 250 0.0 1.6 0.00 0.00 0.00 82 1013.7
20260510033904 17 250 0.0 0.0 0.00 0.00 0.00 81 1013.2
20260510033405 17 250 0.0 0.0 0.00 0.00 0.00 80 1013.2
20260510032903 17 250 0.0 3.2 0.00 0.00 0.00 79 1013.2
20260510032403 17 250 1.6 3.2 0.00 0.00 0.00 79 1013.2
20260510031904 18 243 1.6 3.2 0.00 0.00 0.00 78 1013.2
20260510031403 18 243 1.6 3.2 0.00 0.00 0.00 77 1013.4
20260510030903 18 269 0.0 3.2 0.00 0.00 0.00 77 1013.4
20260510030405 18 276 1.6 4.8 0.00 0.00 0.00 77 1013.4
20260510025903 18 250 1.6 3.2 0.00 0.00 0.00 77 1013.2
20260510025403 18 238 1.6 4.8 0.00 0.00 0.00 77 1013.2
20260510024904 18 241 1.6 3.2 0.00 0.00 0.00 77 1013.2
20260510023903 18 262 1.6 3.2 0.00 0.00 0.00 76 1013.2
20260510023405 18 239 1.6 3.2 0.00 0.00 0.00 76 1013.1
20260510022903 18 254 1.6 3.2 0.00 0.00 0.00 76 1013.0
20260510022403 18 222 1.6 4.8 0.00 0.00 0.00 76 1013.0
20260510021904 18 250 1.6 3.2 0.00 0.00 0.00 77 1013.0
20260510021404 18 215 1.6 3.2 0.00 0.00 0.00 77 1012.8
20260510020904 18 250 0.0 1.6 0.00 0.00 0.00 77 1012.8
20260510015905 18 202 0.0 1.6 0.00 0.00 0.00 78 1012.7
20260510014903 18 192 0.0 3.2 0.00 0.00 0.00 78 1012.7
20260510014404 18 244 0.0 0.0 0.00 0.00 0.00 78 1012.4
20260510013903 18 244 0.0 0.0 0.00 0.00 0.00 78 1012.4
20260510013404 18 244 0.0 0.0 0.00 0.00 0.00 78 1012.4
20260510012904 18 244 0.0 0.0 0.00 0.00 0.00 78 1012.2
20260510012403 18 244 0.0 0.0 0.00 0.00 0.00 78 1012.2
20260510011904 18 244 0.0 0.0 0.00 0.00 0.00 77 1012.2
20260510011404 18 244 0.0 0.0 0.00 0.00 0.00 77 1012.1
20260510010404 18 244 0.0 0.0 0.00 0.00 0.00 76 1012.1
20260510005904 19 244 0.0 0.0 0.00 0.00 0.00 76 1011.8
20260510005404 19 244 0.0 0.0 0.00 0.00 0.00 75 1011.8
20260510004404 20 244 0.0 0.0 0.00 0.00 0.00 75 1011.8
20260510003904 20 244 0.0 0.0 0.00 0.00 0.00 74 1011.8
20260510002904 20 244 0.0 1.6 0.00 0.00 0.00 74 1011.6
20260510002403 20 244 0.0 0.0 0.00 0.00 0.00 73 1011.6
20260510001904 20 244 0.0 0.0 0.00 0.00 0.00 73 1011.6
20260510001404 20 244 0.0 0.0 0.00 0.00 0.00 73 1011.2
20260510000903 20 244 0.0 0.0 0.00 0.00 0.00 72 1011.2
20260510000404 21 244 0.0 1.6 0.00 0.00 0.00 72 1011.2
20260509235905 21 244 0.0 1.6 0.00 0.00 0.00 71 1011.3
20260509235403 21 244 0.0 0.0 0.00 0.00 0.00 70 1011.3
20260509234903 21 244 0.0 3.2 0.00 0.00 0.00 69 1011.3
20260509234405 21 244 0.0 1.6 0.00 0.00 0.00 68 1011.2
20260509233903 21 244 0.0 1.6 0.00 0.00 0.00 69 1011.2
20260509233403 21 244 0.0 1.6 0.00 0.00 0.00 69 1011.2
20260509232904 21 244 0.0 3.2 0.00 0.00 0.00 68 1011.1
20260509232403 21 231 1.6 3.2 0.00 0.00 0.00 68 1011.1
20260509231903 21 249 1.6 4.8 0.00 0.00 0.00 68 1011.1
20260509231404 22 204 3.2 8.0 0.00 0.00 0.00 68 1011.1
20260509230905 22 217 0.0 4.8 0.00 0.00 0.00 68 1011.0
20260509230404 22 220 1.6 4.8 0.00 0.00 0.00 67 1011.0
20260509225904 22 263 1.6 4.8 0.00 0.00 0.00 67 1011.0
20260509225404 22 252 1.6 4.8 0.00 0.00 0.00 66 1011.0
20260509224404 22 263 1.6 8.0 0.00 0.00 0.00 66 1011.1
20260509223904 22 171 6.4 9.7 0.00 0.00 0.00 65 1010.9
20260509223403 22 216 3.2 4.8 0.00 0.00 0.00 66 1010.9
20260509222904 22 126 3.2 8.0 0.00 0.00 0.00 66 1010.9
20260509222405 22 156 3.2 8.0 0.00 0.00 0.00 66 1010.9
20260509221903 22 242 4.8 11.3 0.00 0.00 0.00 65 1010.9
20260509220904 22 162 8.0 12.9 0.00 0.00 0.00 65 1010.7
20260509220404 22 126 4.8 9.7 0.00 0.00 0.00 65 1010.7
20260509215904 22 169 4.8 9.7 0.00 0.00 0.00 64 1010.6
20260509215405 22 146 3.2 9.7 0.00 0.00 0.00 65 1010.6
20260509214904 22 231 1.6 4.8 0.00 0.00 0.00 65 1010.6
20260509214403 22 139 3.2 8.0 0.00 0.00 0.00 65 1010.7
20260509213905 22 159 4.8 8.0 0.00 0.00 0.00 66 1010.7
20260509213404 22 248 3.2 9.7 0.00 0.00 0.00 66 1010.7
20260509212903 22 262 4.8 8.0 0.00 0.00 0.00 65 1010.7
20260509212405 22 272 3.2 8.0 0.00 0.00 0.00 64 1010.7
20260509211903 22 124 4.8 9.7 0.00 0.00 0.00 65 1010.7
20260509211404 22 117 3.2 9.7 0.00 0.00 0.00 66 1010.7
20260509210904 22 177 6.4 11.3 0.00 0.00 0.00 66 1010.7
20260509210403 22 154 6.4 11.3 0.00 0.00 0.00 65 1010.1
20260509205903 22 108 8.0 9.7 0.00 0.00 0.00 66 1010.1
20260509205403 22 244 8.0 11.3 0.00 0.00 0.00 65 1010.1
20260509204403 22 185 4.8 9.7 0.00 0.00 0.00 65 1010.1
20260509203903 22 172 4.8 12.9 0.00 0.00 0.00 64 1010.1
20260509203405 22 140 4.8 9.7 0.00 0.00 0.00 65 1010.1
20260509202904 22 220 4.8 9.7 0.00 0.00 0.00 65 1010.1
20260509202404 22 107 3.2 8.0 0.00 0.00 0.00 64 1010.1
20260509201903 22 164 4.8 9.7 0.00 0.00 0.00 64 1010.1